Location: T. Spence Memorial Observatory
(32.7356°N, 82.2098°W)
Time: 23:37:46
(UTC-04:00)

Daily predictions for brighter satellites

Satellite Brightness Start Highest point End
(mag) Time Altitude Azimuth Time Altitude Azimuth Time Altitude Azimuth
Meteor 2-10 Rocket 3.8 20:46:54 10° N 20:52:37 66° E 20:58:07 10° SSE
SEDSat Delta rocket 3.4 20:51:41 10° WSW 20:56:15 45° SSE 21:00:22 10° E
Cosmos 1782 3.6 20:53:02 10° NNE 20:56:45 34° E 21:00:26 10° SE
FengYun 1-2 T 4.4 20:51:34 10° SSE 20:57:12 85° WSW 21:02:53 10° NNW
Cosmos 1844 Rocket 3.0 20:53:33 10° SSW 20:59:12 74° WNW 21:04:51 10° NNE
Cosmos 1825 3.5 20:58:26 10° SE 21:01:22 21° E 21:04:18 10° NE
FENGYUN 3A 3.7 20:56:27 10° SSE 21:01:48 67° ENE 21:07:08 10° N
Cosmos 2278 Rocket 2.3 20:58:31 10° S 21:04:01 55° ESE 21:09:33 10° NNE
Atlas Centaur 2 1.6 21:02:49 10° W 21:06:32 43° SSW 21:09:39 12° ESE
ERS-1 Rocket 3.9 21:03:33 10° SE 21:07:54 30° ENE 21:12:15 10° N
COSMOS 2406 3.4 21:04:21 10° NNW 21:10:06 77° WSW 21:15:46 10° SSE
Cosmos 1844 3.9 21:05:01 10° SSW 21:10:45 81° WNW 21:16:35 10° NNE
ISS -0.4 21:09:30 10° W 21:11:59 20° NW 21:14:29 10° NNE
H-2A R/B 3.7 21:09:40 11° ESE 21:12:15 17° ENE 21:14:59 10° NNE
APEX 4.0 21:12:02 10° SSE 21:15:20 33° ESE 21:19:28 10° NE
Cosmos 2154 Rocket 4.2 21:10:20 10° SSE 21:16:18 52° E 21:22:17 10° NNE
Cosmos 1939 Rocket 4.2 21:15:00 13° ESE 21:17:24 22° ENE 21:20:29 10° NNE
Intelsat 3F5 C 4.5 21:15:44 10° W 21:19:07 51° S 21:21:22 17° ESE
Cosmos 407 Rocket 3.5 21:14:50 10° NNW 21:20:08 72° ENE 21:25:27 10° SSE
Abrixas 2.4 21:17:38 10° SW 21:20:39 70° SE 21:23:41 10° NE
Cosmos 2184 Rocket 4.4 21:16:10 10° SSW 21:22:16 66° W 21:28:25 10° N
COSMOS 2487 3.7 21:21:04 10° N 21:24:11 27° ENE 21:25:58 18° ESE
Cosmos 1238 Rocket 3.9 21:21:24 10° NNE 21:24:34 27° E 21:26:52 17° SE
SPOT 5 4.4 21:23:32 14° ESE 21:26:32 23° ENE 21:30:38 10° NNE
Cosmos 2082 Rocket 4.0 21:24:39 10° NNE 21:28:09 16° ENE 21:30:58 12° E
Cosmos 1452 Rocket 3.9 21:26:10 10° SSW 21:31:23 68° WNW 21:36:39 10° N
CENTAUR R/B 4.1 21:24:09 10° NW 21:31:44 46° WSW 21:39:32 10° S
Lacrosse 5 3.1 21:31:32 10° SSE 21:35:09 20° ESE 21:38:48 10° ENE
Cosmos 1184 Rocket 2.8 21:32:55 10° S 21:36:11 57° E 21:39:28 10° NNE
Intercosmos 25 4.2 21:38:00 24° ESE 21:38:25 24° E 21:41:06 10° NE
Cosmos 1674 Rocket 4.1 21:37:51 10° NNW 21:42:13 60° W 21:46:32 10° S
Cosmos 2297 3.7 21:37:08 10° S 21:42:41 58° ESE 21:48:18 10° NNE
H-2A R/B 3.6 21:43:41 10° WSW 21:47:47 62° S 22:12:54 10° ESE
CZ-3A R/B 3.8 21:29:24 10° W 21:48:28 40° SSW 21:51:21 22° SSE
Okean 2 Rocket 3.0 21:47:09 15° S 21:50:45 61° E 21:55:06 10° NNE
Cosmos 1782 Rocket 3.5 21:51:07 10° S 21:55:34 89° E 22:00:03 10° N
Cosmos 1606 3.1 21:52:38 10° NNW 21:56:32 64° W 21:59:21 18° S
CZ-4 DEB 4.0 21:55:36 15° SSW 21:57:51 38° W 22:00:50 10° NNW
NOSS 8 (E) 4.3 21:56:33 10° SSW 22:00:04 67° ESE 22:03:33 10° NE
EO 1 Delta rocket 3.9 21:55:18 10° N 22:00:50 89° ESE 22:05:29 10° S
ALOS 4.5 21:59:54 10° SSW 22:03:34 23° W 22:07:15 10° NW
Cosmos 1242 Rocket 2.8 22:00:48 10° N 22:04:24 50° E 22:04:46 48° ESE
Cosmos 1850 Rocket 4.3 22:02:27 10° N 22:07:39 52° ENE 22:09:25 37° ESE
COS B Rocket 3.4 22:05:36 10° N 22:09:17 61° W 22:10:45 30° SSW
ARGOS 4.1 22:09:05 27° E 22:10:06 29° ENE 22:14:37 10° NNE
YAOGAN 6 3.6 22:10:46 31° ENE 22:10:46 31° ENE 22:13:28 10° N
Cosmos 1954 Rocket 4.3 22:06:26 10° NNW 22:11:37 65° WSW 22:14:42 24° S
Lacrosse 5 rocket 1.1 22:07:40 10° SSW 22:11:39 61° SE 22:15:27 10° NE
Cosmos 2218 Rocket 4.1 22:08:10 26° SSE 22:11:41 56° E 22:17:55 10° NNE
OAO 3 Rocket 3.3 22:07:50 10° W 22:12:49 76° N 22:15:30 27° ENE
Nadezhda 3 Rocket 4.3 22:06:41 10° NNW 22:13:00 69° W 22:18:31 14° S
GPS 2-05 Rocket1 3.4 22:09:20 10° WNW 22:13:01 56° N 22:13:49 44° NE
Cosmos 1408 4.2 22:09:46 10° SSW 22:13:06 33° W 22:16:27 10° NNW
ATLAS 2A CENTAUR R/B 3.1 22:12:51 10° SW 22:13:04 11° SW 22:13:04 11° SW
Cosmos 1975 Rocket 2.9 22:10:20 10° N 22:14:41 89° W 22:16:09 41° S
DNEPR-1 R/B 3.7 22:10:15 10° NNW 22:15:17 68° ENE 22:16:17 50° ESE
Cosmos 1959 Rocket 4.4 22:16:51 30° SSE 22:19:58 65° E 22:26:00 10° NNE
CZ-4 SHROUD 4.5 22:23:32 33° NNE 22:23:32 33° NNE 22:25:29 10° N
Cosmos 1023 Rocket 4.5 22:18:38 10° NNW 22:23:46 77° WSW 22:25:37 40° S
SL-08 R/B 4.5 22:21:28 30° SSE 22:24:50 70° E 22:31:16 10° N
Cosmos 1331 Rocket 4.2 22:27:09 47° E 22:27:09 47° E 22:31:51 10° NNE
Cosmos 1727 Rocket 4.3 22:23:43 10° N 22:29:34 43° E 22:30:27 41° ESE
Cosmos 1741 Rocket 3.9 22:24:38 10° NNW 22:29:53 84° ENE 22:31:03 55° SSE
MetOp-A 4.0 22:31:17 49° SSE 22:32:47 85° ENE 22:38:09 10° NNW
Cosmos 1110 Rocket 3.8 22:35:43 60° SSE 22:36:28 70° ESE 22:41:40 10° NNE
Envisat 3.8 22:35:07 26° SSW 22:37:35 46° W 22:42:27 10° NNW
Meteor 1-20 Rocket 4.2 22:39:25 55° ESE 22:39:35 56° E 22:44:59 10° NNE
SEDSat Delta rocket 3.3 22:37:50 10° W 22:41:22 54° WSW 22:41:22 54° WSW
Cosmos 614 Rocket 3.8 22:37:22 10° NNW 22:42:26 80° WSW 22:43:08 66° S
SL-8 Rocket 4.3 22:38:02 18° SSW 22:42:51 65° W 22:49:03 10° N
Terra 3.5 22:44:32 21° NE 22:44:32 21° NE 22:47:15 10° NNE
Cosmos 1833 Rocket 2.7 22:39:08 10° NNW 22:44:40 58° ENE 22:45:06 57° E
USA 245 4.1 22:46:36 44° N 22:46:36 44° N 22:49:35 10° N
H-2A R/B 3.5 22:46:49 27° SW 22:48:01 31° W 22:51:47 10° NW
Cosmos 2151 Rocket 4.3 22:56:55 47° WSW 22:57:30 51° W 23:01:55 10° N
Meteor 1-25 Rocket 4.3 22:58:34 55° SSW 22:59:52 79° W 23:05:43 10° N
USA 234 4.3 22:55:02 10° NE 22:58:08 28° ENE 22:58:08 28° ENE
SPOT 5 4.2 23:02:47 32° SW 23:04:16 38° W 23:09:14 10° NNW
CZ-4B R/B 4.0 23:02:48 10° N 23:07:31 51° WNW 23:08:19 45° WSW
Cosmos 2082 Rocket 2.4 23:07:02 10° NNW 23:12:38 60° WSW 23:12:49 59° WSW
Lacrosse 5 2.7 23:12:50 10° WSW 23:17:46 50° NW 23:22:43 10° NNE
H-2A R/B 2.5 23:20:50 56° NNE 23:20:50 56° NNE 23:25:08 10° N
Lacrosse 5 rocket 4.3 23:49:16 10° WNW 23:51:08 13° NW 23:52:58 10° N
Cosmos 2369 Rocket 3.3 23:55:52 37° NNE 23:55:52 37° NNE 23:59:12 10° NNE
